contact:dominique.lefevre@mio.osupytheas.fr, maurice.libes@osupytheas.fr, didier.mallarino@osupytheas.fr
Project:EMSO http://www.emso-fr.org/EMSO-France
Depth: 2436.0 m
Title:EMSO Ligure Ouest : Data MII capteur OXYGEN
DateTime,Latitude,Longitude,Optode-Type,Optode_Serial,Oxygen,Saturation_Oxygen,Temperature
DateTime,Latitude,Longitude,Optode-Type,Optode_Serial,µmol.l-1,%,degC
2017-10-24T00:01:40,42.805,6.029,4330,1995,193.075,59.046,13.288
2017-10-24T00:04:40,42.805,6.029,4330,1995,193.025,59.028,13.287
2017-10-24T00:07:40,42.805,6.029,4330,1995,193.102,59.055,13.289
2017-10-24T00:10:40,42.805,6.029,4330,1995,193.180,59.077,13.288
2017-10-24T00:13:40,42.805,6.029,4330,1995,192.948,59.005,13.287
2017-10-24T00:16:40,42.805,6.029,4330,1995,192.567,58.890,13.288
2017-10-24T00:19:40,42.805,6.029,4330,1995,192.388,58.835,13.288
2017-10-24T00:22:40,42.805,6.029,4330,1995,192.927,59.001,13.289
2017-10-24T00:25:40,42.805,6.029,4330,1995,192.626,58.908,13.288
2017-10-24T00:28:40,42.805,6.029,4330,1995,192.532,58.879,13.288
2017-10-24T00:31:40,42.805,6.029,4330,1995,192.245,58.791,13.288
2017-10-24T00:34:40,42.805,6.029,4330,1995,192.705,58.932,13.288
2017-10-24T00:37:40,42.805,6.029,4330,1995,192.842,58.973,13.288
2017-10-24T00:40:40,42.805,6.029,4330,1995,193.393,59.142,13.288
2017-10-24T00:43:40,42.805,6.029,4330,1995,193.583,59.201,13.288
2017-10-24T00:46:40,42.805,6.029,4330,1995,193.520,59.181,13.288
2017-10-24T00:49:40,42.805,6.029,4330,1995,193.246,59.097,13.288
2017-10-24T00:52:40,42.805,6.029,4330,1995,193.528,59.183,13.288
2017-10-24T00:55:40,42.805,6.029,4330,1995,193.509,59.178,13.288
2017-10-24T00:58:40,42.805,6.029,4330,1995,193.645,59.219,13.288
2017-10-24T01:01:40,42.805,6.029,4330,1995,193.844,59.280,13.288
2017-10-24T01:04:40,42.805,6.029,4330,1995,194.022,59.334,13.288
2017-10-24T01:07:40,42.805,6.029,4330,1995,194.000,59.327,13.288
2017-10-24T01:10:40,42.805,6.029,4330,1995,193.780,59.261,13.288
2017-10-24T01:13:40,42.805,6.029,4330,1995,193.391,59.142,13.288
2017-10-24T01:16:40,42.805,6.029,4330,1995,193.380,59.138,13.288
2017-10-24T01:19:40,42.805,6.029,4330,1995,193.732,59.246,13.288
2017-10-24T01:22:40,42.805,6.029,4330,1995,193.865,59.286,13.288
2017-10-24T01:25:40,42.805,6.029,4330,1995,193.841,59.279,13.288
2017-10-24T01:28:40,42.805,6.029,4330,1995,193.337,59.126,13.289
2017-10-24T01:31:40,42.805,6.029,4330,1995,193.176,59.075,13.287
2017-10-24T01:34:40,42.805,6.029,4330,1995,193.501,59.175,13.288
2017-10-24T01:37:40,42.805,6.029,4330,1995,193.954,59.313,13.287
2017-10-24T01:40:40,42.805,6.029,4330,1995,194.093,59.356,13.288
2017-10-24T01:43:40,42.805,6.029,4330,1995,194.111,59.360,13.287
2017-10-24T01:46:40,42.805,6.029,4330,1995,194.157,59.375,13.288
2017-10-24T01:49:40,42.805,6.029,4330,1995,194.073,59.350,13.288
2017-10-24T01:52:40,42.805,6.029,4330,1995,194.229,59.397,13.287
2017-10-24T01:55:40,42.805,6.029,4330,1995,194.432,59.460,13.288
2017-10-24T01:58:40,42.805,6.029,4330,1995,194.013,59.332,13.288
2017-10-24T02:01:40,42.805,6.029,4330,1995,194.004,59.328,13.287
2017-10-24T02:04:40,42.805,6.029,4330,1995,194.359,59.437,13.288
2017-10-24T02:07:40,42.805,6.029,4330,1995,193.904,59.299,13.288
2017-10-24T02:10:40,42.805,6.029,4330,1995,193.779,59.259,13.287
2017-10-24T02:13:40,42.805,6.029,4330,1995,194.021,59.333,13.287
2017-10-24T02:16:40,42.805,6.029,4330,1995,193.661,59.223,13.287
2017-10-24T02:19:40,42.805,6.029,4330,1995,193.172,59.075,13.288
2017-10-24T02:22:40,42.805,6.029,4330,1995,193.254,59.099,13.288
2017-10-24T02:25:40,42.805,6.029,4330,1995,193.756,59.252,13.287
2017-10-24T02:28:40,42.805,6.029,4330,1995,193.543,59.187,13.287
2017-10-24T02:31:40,42.805,6.029,4330,1995,193.840,59.279,13.288
2017-10-24T02:34:40,42.805,6.029,4330,1995,193.805,59.267,13.287
2017-10-24T02:37:40,42.805,6.029,4330,1995,193.545,59.188,13.287
2017-10-24T02:40:40,42.805,6.029,4330,1995,193.466,59.164,13.287
2017-10-24T02:43:40,42.805,6.029,4330,1995,193.196,59.081,13.287
2017-10-24T02:46:40,42.805,6.029,4330,1995,193.510,59.177,13.287
2017-10-24T02:49:40,42.805,6.029,4330,1995,193.956,59.314,13.287
2017-10-24T02:52:40,42.805,6.029,4330,1995,194.179,59.382,13.287
2017-10-24T02:55:40,42.805,6.029,4330,1995,194.160,59.376,13.287
2017-10-24T02:58:40,42.805,6.029,4330,1995,194.212,59.391,13.287
2017-10-24T03:01:40,42.805,6.029,4330,1995,194.782,59.565,13.287
2017-10-24T03:04:40,42.805,6.029,4330,1995,194.609,59.513,13.287
2017-10-24T03:07:40,42.805,6.029,4330,1995,194.116,59.363,13.288
2017-10-24T03:10:40,42.805,6.029,4330,1995,194.062,59.345,13.287
2017-10-24T03:13:40,42.805,6.029,4330,1995,194.238,59.399,13.287
2017-10-24T03:16:40,42.805,6.029,4330,1995,194.247,59.402,13.287
2017-10-24T03:19:40,42.805,6.029,4330,1995,194.311,59.421,13.286
2017-10-24T03:22:40,42.805,6.029,4330,1995,194.472,59.471,13.287
2017-10-24T03:25:40,42.805,6.029,4330,1995,194.464,59.468,13.287
2017-10-24T03:28:40,42.805,6.029,4330,1995,194.179,59.381,13.287
2017-10-24T03:31:40,42.805,6.029,4330,1995,194.222,59.395,13.287
2017-10-24T03:34:40,42.805,6.029,4330,1995,194.074,59.350,13.287
2017-10-24T03:37:40,42.805,6.029,4330,1995,194.126,59.365,13.287
2017-10-24T03:40:40,42.805,6.029,4330,1995,193.779,59.259,13.287
2017-10-24T03:43:40,42.805,6.029,4330,1995,193.273,59.104,13.287
2017-10-24T03:46:40,42.805,6.029,4330,1995,192.929,58.998,13.286
2017-10-24T03:49:40,42.805,6.029,4330,1995,193.335,59.123,13.287
2017-10-24T03:52:40,42.805,6.029,4330,1995,193.330,59.121,13.286
2017-10-24T03:55:40,42.805,6.029,4330,1995,193.572,59.196,13.287
2017-10-24T03:58:40,42.805,6.029,4330,1995,193.655,59.220,13.287
2017-10-24T04:01:40,42.805,6.029,4330,1995,193.567,59.196,13.288
2017-10-24T04:04:40,42.805,6.029,4330,1995,193.671,59.228,13.289
2017-10-24T04:07:40,42.805,6.029,4330,1995,193.181,59.077,13.287
2017-10-24T04:10:40,42.805,6.029,4330,1995,193.464,59.162,13.286
2017-10-24T04:13:40,42.805,6.029,4330,1995,193.374,59.134,13.286
2017-10-24T04:16:40,42.805,6.029,4330,1995,193.574,59.195,13.286
2017-10-24T04:19:40,42.805,6.029,4330,1995,193.707,59.236,13.286
2017-10-24T04:22:40,42.805,6.029,4330,1995,193.889,59.291,13.286
2017-10-24T04:25:40,42.805,6.029,4330,1995,194.087,59.352,13.286
2017-10-24T04:28:40,42.805,6.029,4330,1995,193.831,59.274,13.286
2017-10-24T04:31:40,42.805,6.029,4330,1995,193.869,59.286,13.287
2017-10-24T04:34:39,42.805,6.029,4330,1995,193.740,59.246,13.286
2017-10-24T04:37:39,42.805,6.029,4330,1995,194.118,59.361,13.286
2017-10-24T04:40:39,42.805,6.029,4330,1995,194.474,59.470,13.286
2017-10-24T04:43:39,42.805,6.029,4330,1995,194.682,59.534,13.286
2017-10-24T04:46:39,42.805,6.029,4330,1995,194.565,59.498,13.286
2017-10-24T04:49:39,42.805,6.029,4330,1995,194.799,59.569,13.286
2017-10-24T04:52:39,42.805,6.029,4330,1995,195.062,59.650,13.286
2017-10-24T04:55:39,42.805,6.029,4330,1995,195.390,59.751,13.286
2017-10-24T04:58:39,42.805,6.029,4330,1995,195.770,59.867,13.286
2017-10-24T05:01:39,42.805,6.029,4330,1995,195.694,59.844,13.286
2017-10-24T05:04:39,42.805,6.029,4330,1995,195.807,59.878,13.286
2017-10-24T05:07:39,42.805,6.029,4330,1995,195.908,59.910,13.287
2017-10-24T05:10:39,42.805,6.029,4330,1995,196.008,59.940,13.287
2017-10-24T05:13:39,42.805,6.029,4330,1995,195.919,59.913,13.287
2017-10-24T05:16:39,42.805,6.029,4330,1995,196.008,59.940,13.286
2017-10-24T05:19:39,42.805,6.029,4330,1995,196.000,59.938,13.287
2017-10-24T05:22:39,42.805,6.029,4330,1995,195.844,59.890,13.287
2017-10-24T05:25:39,42.805,6.029,4330,1995,195.907,59.909,13.286
2017-10-24T05:28:39,42.805,6.029,4330,1995,195.697,59.845,13.287
2017-10-24T05:31:39,42.805,6.029,4330,1995,195.758,59.864,13.287
2017-10-24T05:34:39,42.805,6.029,4330,1995,195.649,59.830,13.286
2017-10-24T05:37:39,42.805,6.029,4330,1995,195.725,59.854,13.287
2017-10-24T05:40:39,42.805,6.029,4330,1995,195.659,59.834,13.287
2017-10-24T05:43:39,42.805,6.029,4330,1995,195.663,59.835,13.287
2017-10-24T05:46:39,42.805,6.029,4330,1995,195.709,59.849,13.287
2017-10-24T05:49:39,42.805,6.029,4330,1995,195.995,59.936,13.287
2017-10-24T05:52:39,42.805,6.029,4330,1995,196.274,60.021,13.286
2017-10-24T05:55:39,42.805,6.029,4330,1995,196.203,60.000,13.287
2017-10-24T05:58:39,42.805,6.029,4330,1995,196.034,59.949,13.287
2017-10-24T06:01:39,42.805,6.029,4330,1995,195.826,59.885,13.287
2017-10-24T06:04:39,42.805,6.029,4330,1995,195.624,59.824,13.287
2017-10-24T06:07:39,42.805,6.029,4330,1995,195.398,59.754,13.287
2017-10-24T06:10:39,42.805,6.029,4330,1995,195.520,59.792,13.287
2017-10-24T06:13:39,42.805,6.029,4330,1995,195.448,59.770,13.287
2017-10-24T06:16:39,42.805,6.029,4330,1995,195.358,59.742,13.287
2017-10-24T06:19:39,42.805,6.029,4330,1995,195.452,59.770,13.287
2017-10-24T06:22:39,42.805,6.029,4330,1995,195.527,59.793,13.287
2017-10-24T06:25:39,42.805,6.029,4330,1995,195.539,59.796,13.286
2017-10-24T06:28:39,42.805,6.029,4330,1995,195.333,59.734,13.287
2017-10-24T06:31:39,42.805,6.029,4330,1995,195.241,59.707,13.288
2017-10-24T06:34:39,42.805,6.029,4330,1995,195.137,59.675,13.288
2017-10-24T06:37:39,42.805,6.029,4330,1995,195.135,59.674,13.287
2017-10-24T06:40:39,42.805,6.029,4330,1995,195.001,59.632,13.287
2017-10-24T06:43:39,42.805,6.029,4330,1995,195.214,59.697,13.286
2017-10-24T06:46:39,42.805,6.029,4330,1995,194.848,59.585,13.287
2017-10-24T06:49:39,42.805,6.029,4330,1995,195.074,59.656,13.287
2017-10-24T06:52:39,42.805,6.029,4330,1995,195.045,59.647,13.287
2017-10-24T06:55:39,42.805,6.029,4330,1995,195.319,59.730,13.287
2017-10-24T06:58:39,42.805,6.029,4330,1995,195.489,59.782,13.287
2017-10-24T07:01:39,42.805,6.029,4330,1995,195.546,59.799,13.287
2017-10-24T07:04:39,42.805,6.029,4330,1995,195.628,59.825,13.287
2017-10-24T07:07:39,42.805,6.029,4330,1995,195.423,59.762,13.287
2017-10-24T07:10:39,42.805,6.029,4330,1995,195.195,59.693,13.288
2017-10-24T07:13:39,42.805,6.029,4330,1995,194.919,59.609,13.288
2017-10-24T07:16:39,42.805,6.029,4330,1995,194.797,59.573,13.289
2017-10-24T07:19:39,42.805,6.029,4330,1995,194.617,59.516,13.288
2017-10-24T07:22:39,42.805,6.029,4330,1995,194.456,59.468,13.288
2017-10-24T07:25:39,42.805,6.029,4330,1995,194.727,59.549,13.287
2017-10-24T07:28:39,42.805,6.029,4330,1995,194.955,59.619,13.287
2017-10-24T07:31:39,42.805,6.029,4330,1995,195.057,59.650,13.287
2017-10-24T07:34:39,42.805,6.029,4330,1995,195.132,59.673,13.287
2017-10-24T07:37:39,42.805,6.029,4330,1995,195.018,59.638,13.287
2017-10-24T07:40:39,42.805,6.029,4330,1995,194.906,59.605,13.288
2017-10-24T07:43:39,42.805,6.029,4330,1995,194.650,59.526,13.287
2017-10-24T07:46:39,42.805,6.029,4330,1995,194.715,59.546,13.287
2017-10-24T07:49:39,42.805,6.029,4330,1995,194.838,59.583,13.287
2017-10-24T07:52:39,42.805,6.029,4330,1995,194.970,59.623,13.287
2017-10-24T07:55:39,42.805,6.029,4330,1995,194.865,59.591,13.287
2017-10-24T07:58:39,42.805,6.029,4330,1995,194.689,59.538,13.287
2017-10-24T08:01:39,42.805,6.029,4330,1995,194.554,59.497,13.288
2017-10-24T08:04:39,42.805,6.029,4330,1995,194.502,59.481,13.288
2017-10-24T08:07:39,42.805,6.029,4330,1995,194.311,59.424,13.289
2017-10-24T08:10:39,42.805,6.029,4330,1995,194.282,59.414,13.288
2017-10-24T08:13:39,42.805,6.029,4330,1995,194.236,59.400,13.288
2017-10-24T08:16:39,42.805,6.029,4330,1995,193.825,59.276,13.289
2017-10-24T08:19:39,42.805,6.029,4330,1995,193.247,59.100,13.290
2017-10-24T08:22:39,42.805,6.029,4330,1995,192.675,58.924,13.289
2017-10-24T08:25:39,42.805,6.029,4330,1995,192.833,58.972,13.288
2017-10-24T08:28:39,42.805,6.029,4330,1995,193.015,59.027,13.288
2017-10-24T08:31:39,42.805,6.029,4330,1995,192.969,59.013,13.288
2017-10-24T08:34:39,42.805,6.029,4330,1995,193.126,59.061,13.288
2017-10-24T08:37:39,42.805,6.029,4330,1995,193.128,59.061,13.288
2017-10-24T08:40:39,42.805,6.029,4330,1995,193.058,59.041,13.289
2017-10-24T08:43:39,42.805,6.029,4330,1995,192.919,58.998,13.288
2017-10-24T08:46:39,42.805,6.029,4330,1995,192.895,58.991,13.289
2017-10-24T08:49:39,42.805,6.029,4330,1995,192.425,58.848,13.289
2017-10-24T08:52:39,42.805,6.029,4330,1995,192.262,58.798,13.289
2017-10-24T08:55:39,42.805,6.029,4330,1995,192.080,58.744,13.290
2017-10-24T08:58:39,42.805,6.029,4330,1995,192.020,58.726,13.291
2017-10-24T09:01:39,42.805,6.029,4330,1995,192.073,58.742,13.290
2017-10-24T09:04:39,42.805,6.029,4330,1995,192.021,58.726,13.290
2017-10-24T09:07:39,42.805,6.029,4330,1995,191.847,58.672,13.290
2017-10-24T09:10:39,42.805,6.029,4330,1995,191.642,58.610,13.290
2017-10-24T09:13:39,42.805,6.029,4330,1995,191.563,58.585,13.290
2017-10-24T09:16:39,42.805,6.029,4330,1995,191.516,58.571,13.290
2017-10-24T09:19:39,42.805,6.029,4330,1995,191.321,58.512,13.290
2017-10-24T09:22:39,42.805,6.029,4330,1995,191.342,58.520,13.292
2017-10-24T09:25:39,42.805,6.029,4330,1995,191.340,58.518,13.291
2017-10-24T09:28:39,42.805,6.029,4330,1995,191.723,58.635,13.291
2017-10-24T09:31:39,42.805,6.029,4330,1995,192.070,58.742,13.291
2017-10-24T09:34:39,42.805,6.029,4330,1995,192.217,58.786,13.291
2017-10-24T09:37:39,42.805,6.029,4330,1995,192.325,58.821,13.292
2017-10-24T09:40:39,42.805,6.029,4330,1995,192.280,58.808,13.293
2017-10-24T09:43:39,42.805,6.029,4330,1995,192.495,58.871,13.291
2017-10-24T09:46:39,42.805,6.029,4330,1995,192.518,58.878,13.291
2017-10-24T09:49:39,42.805,6.029,4330,1995,192.715,58.938,13.290
2017-10-24T09:52:39,42.805,6.029,4330,1995,192.750,58.949,13.291
2017-10-24T09:55:39,42.805,6.029,4330,1995,192.638,58.914,13.290
2017-10-24T09:58:39,42.805,6.029,4330,1995,192.709,58.936,13.290
2017-10-24T10:01:39,42.805,6.029,4330,1995,192.771,58.955,13.291
2017-10-24T10:04:39,42.805,6.029,4330,1995,192.512,58.877,13.291
2017-10-24T10:07:39,42.805,6.029,4330,1995,192.466,58.862,13.290
2017-10-24T10:10:39,42.805,6.029,4330,1995,192.400,58.843,13.291
2017-10-24T10:13:39,42.805,6.029,4330,1995,192.567,58.894,13.291
2017-10-24T10:16:39,42.805,6.029,4330,1995,192.253,58.798,13.292
2017-10-24T10:19:39,42.805,6.029,4330,1995,191.964,58.710,13.292
2017-10-24T10:22:39,42.805,6.029,4330,1995,192.168,58.771,13.291
2017-10-24T10:25:39,42.805,6.029,4330,1995,191.940,58.701,13.291
2017-10-24T10:28:39,42.805,6.029,4330,1995,191.928,58.697,13.290
2017-10-24T10:31:39,42.805,6.029,4330,1995,191.952,58.704,13.290
2017-10-24T10:34:39,42.805,6.029,4330,1995,192.087,58.746,13.290
2017-10-24T10:37:39,42.805,6.029,4330,1995,192.378,58.836,13.291
2017-10-24T10:40:39,42.805,6.029,4330,1995,192.621,58.908,13.290
2017-10-24T10:43:39,42.805,6.029,4330,1995,192.605,58.905,13.291
2017-10-24T10:46:39,42.805,6.029,4330,1995,192.241,58.793,13.290
2017-10-24T10:49:39,42.805,6.029,4330,1995,192.364,58.832,13.291
2017-10-24T10:52:39,42.805,6.029,4330,1995,192.221,58.787,13.290
2017-10-24T10:55:39,42.805,6.029,4330,1995,192.290,58.810,13.292
2017-10-24T10:58:39,42.805,6.029,4330,1995,191.827,58.669,13.292
2017-10-24T11:01:39,42.805,6.029,4330,1995,191.419,58.545,13.293
2017-10-24T11:04:39,42.805,6.029,4330,1995,191.236,58.488,13.292
2017-10-24T11:07:39,42.805,6.029,4330,1995,190.943,58.397,13.291
2017-10-24T11:10:39,42.805,6.029,4330,1995,191.200,58.475,13.291
2017-10-24T11:13:39,42.805,6.029,4330,1995,191.289,58.502,13.291
2017-10-24T11:16:39,42.805,6.029,4330,1995,190.975,58.407,13.291
2017-10-24T11:19:39,42.805,6.029,4330,1995,190.693,58.321,13.292
2017-10-24T11:22:39,42.805,6.029,4330,1995,190.393,58.228,13.290
2017-10-24T11:25:39,42.805,6.029,4330,1995,190.086,58.134,13.290
2017-10-24T11:28:39,42.805,6.029,4330,1995,190.249,58.184,13.291
2017-10-24T11:31:39,42.805,6.029,4330,1995,190.097,58.137,13.290
2017-10-24T11:34:39,42.805,6.029,4330,1995,189.621,57.992,13.291
2017-10-24T11:37:39,42.805,6.029,4330,1995,190.346,58.214,13.291
2017-10-24T11:40:39,42.805,6.029,4330,1995,190.416,58.234,13.290
2017-10-24T11:43:39,42.805,6.029,4330,1995,191.017,58.419,13.290
2017-10-24T11:46:39,42.805,6.029,4330,1995,191.402,58.535,13.289
2017-10-24T11:49:39,42.805,6.029,4330,1995,191.211,58.481,13.292
2017-10-24T11:52:39,42.805,6.029,4330,1995,191.497,58.564,13.290
2017-10-24T11:55:39,42.805,6.029,4330,1995,191.168,58.465,13.291
2017-10-24T11:58:39,42.805,6.029,4330,1995,190.735,58.332,13.290
2017-10-24T12:01:39,42.805,6.029,4330,1995,190.813,58.357,13.290
2017-10-24T12:04:39,42.805,6.029,4330,1995,190.601,58.290,13.290
2017-10-24T12:07:39,42.805,6.029,4330,1995,190.713,58.324,13.289
2017-10-24T12:10:39,42.805,6.029,4330,1995,191.157,58.460,13.290
2017-10-24T12:13:39,42.805,6.029,4330,1995,191.599,58.597,13.290
2017-10-24T12:16:39,42.805,6.029,4330,1995,191.295,58.505,13.291
2017-10-24T12:19:39,42.805,6.029,4330,1995,190.956,58.400,13.290
2017-10-24T12:22:39,42.805,6.029,4330,1995,191.029,58.420,13.289
2017-10-24T12:25:39,42.805,6.029,4330,1995,191.713,58.631,13.290
2017-10-24T12:28:39,42.805,6.029,4330,1995,191.874,58.680,13.290
2017-10-24T12:31:39,42.805,6.029,4330,1995,191.297,58.503,13.290
2017-10-24T12:34:39,42.805,6.029,4330,1995,191.229,58.480,13.288
2017-10-24T12:37:39,42.805,6.029,4330,1995,191.310,58.507,13.289
2017-10-24T12:40:39,42.805,6.029,4330,1995,191.238,58.485,13.289
2017-10-24T12:43:39,42.805,6.029,4330,1995,190.733,58.329,13.288
2017-10-24T12:46:39,42.805,6.029,4330,1995,190.744,58.333,13.289
2017-10-24T12:49:39,42.805,6.029,4330,1995,190.977,58.405,13.289
2017-10-24T12:52:39,42.805,6.029,4330,1995,191.042,58.425,13.289
2017-10-24T12:55:39,42.805,6.029,4330,1995,190.538,58.270,13.289
2017-10-24T12:58:39,42.805,6.029,4330,1995,190.537,58.270,13.289
2017-10-24T13:01:39,42.805,6.029,4330,1995,190.906,58.382,13.288
2017-10-24T13:04:39,42.805,6.029,4330,1995,190.699,58.320,13.289
2017-10-24T13:07:39,42.805,6.029,4330,1995,191.110,58.445,13.289
2017-10-24T13:10:39,42.805,6.029,4330,1995,191.118,58.450,13.291
2017-10-24T13:13:39,42.805,6.029,4330,1995,190.794,58.349,13.289
2017-10-24T13:16:39,42.805,6.029,4330,1995,191.392,58.531,13.289
2017-10-24T13:19:39,42.805,6.029,4330,1995,190.795,58.350,13.290
2017-10-24T13:22:39,42.805,6.029,4330,1995,191.214,58.476,13.288
2017-10-24T13:25:39,42.805,6.029,4330,1995,191.738,58.637,13.288
2017-10-24T13:28:39,42.805,6.029,4330,1995,191.625,58.602,13.288
2017-10-24T13:31:39,42.805,6.029,4330,1995,191.507,58.566,13.289
2017-10-24T13:34:39,42.805,6.029,4330,1995,191.889,58.683,13.289
2017-10-24T13:37:39,42.805,6.029,4330,1995,191.999,58.718,13.290
2017-10-24T13:40:39,42.805,6.029,4330,1995,191.879,58.681,13.289
2017-10-24T13:43:39,42.805,6.029,4330,1995,191.650,58.610,13.288
2017-10-24T13:46:39,42.805,6.029,4330,1995,191.859,58.674,13.289
2017-10-24T13:49:39,42.805,6.029,4330,1995,191.714,58.630,13.289
2017-10-24T13:52:39,42.805,6.029,4330,1995,191.534,58.575,13.289
2017-10-24T13:55:39,42.805,6.029,4330,1995,191.684,58.621,13.289
2017-10-24T13:58:39,42.805,6.029,4330,1995,192.040,58.731,13.290
2017-10-24T14:01:39,42.805,6.029,4330,1995,191.857,58.674,13.289
2017-10-24T14:04:39,42.805,6.029,4330,1995,191.492,58.562,13.289
2017-10-24T14:07:39,42.805,6.029,4330,1995,192.251,58.794,13.289
2017-10-24T14:10:39,42.805,6.029,4330,1995,192.617,58.904,13.287
2017-10-24T14:13:39,42.805,6.029,4330,1995,192.641,58.911,13.287
2017-10-24T14:16:39,42.805,6.029,4330,1995,192.364,58.827,13.287
2017-10-24T14:19:39,42.805,6.029,4330,1995,192.156,58.765,13.289
2017-10-24T14:22:39,42.805,6.029,4330,1995,192.357,58.825,13.288
2017-10-24T14:25:39,42.805,6.029,4330,1995,192.524,58.879,13.290
2017-10-24T14:28:39,42.805,6.029,4330,1995,192.867,58.982,13.288
2017-10-24T14:31:39,42.805,6.029,4330,1995,193.665,59.225,13.287
2017-10-24T14:34:39,42.805,6.029,4330,1995,193.979,59.320,13.287
2017-10-24T14:37:39,42.805,6.029,4330,1995,194.271,59.411,13.289
2017-10-24T14:40:39,42.805,6.029,4330,1995,194.056,59.346,13.289
2017-10-24T14:43:39,42.805,6.029,4330,1995,194.068,59.350,13.289
2017-10-24T14:46:39,42.805,6.029,4330,1995,193.685,59.231,13.288
2017-10-24T14:49:39,42.805,6.029,4330,1995,193.915,59.302,13.288
2017-10-24T14:52:39,42.805,6.029,4330,1995,194.027,59.335,13.287
2017-10-24T14:55:39,42.805,6.029,4330,1995,194.553,59.496,13.288
2017-10-24T14:58:39,42.805,6.029,4330,1995,194.148,59.372,13.287
2017-10-24T15:01:39,42.805,6.029,4330,1995,194.928,59.610,13.287
2017-10-24T15:04:39,42.805,6.029,4330,1995,195.780,59.871,13.287
2017-10-24T15:07:39,42.805,6.029,4330,1995,195.790,59.875,13.287
2017-10-24T15:10:39,42.805,6.029,4330,1995,196.089,59.967,13.288
2017-10-24T15:13:39,42.805,6.029,4330,1995,196.317,60.035,13.287
2017-10-24T15:16:39,42.805,6.029,4330,1995,196.574,60.117,13.289
2017-10-24T15:19:39,42.805,6.029,4330,1995,195.897,59.908,13.288
2017-10-24T15:22:39,42.805,6.029,4330,1995,195.577,59.809,13.287
2017-10-24T15:25:39,42.805,6.029,4330,1995,195.906,59.909,13.287
2017-10-24T15:28:39,42.805,6.029,4330,1995,196.034,59.947,13.286
2017-10-24T15:31:39,42.805,6.029,4330,1995,196.353,60.046,13.287
2017-10-24T15:34:39,42.805,6.029,4330,1995,195.922,59.914,13.287
2017-10-24T15:37:39,42.805,6.029,4330,1995,195.748,59.862,13.288
2017-10-24T15:40:39,42.805,6.029,4330,1995,195.887,59.904,13.287
2017-10-24T15:43:39,42.805,6.029,4330,1995,195.586,59.811,13.287
2017-10-24T15:46:39,42.805,6.029,4330,1995,195.266,59.715,13.288
2017-10-24T15:49:39,42.805,6.029,4330,1995,194.866,59.592,13.287
2017-10-24T15:52:39,42.805,6.029,4330,1995,194.669,59.533,13.288
2017-10-24T15:55:39,42.805,6.029,4330,1995,194.659,59.528,13.287
2017-10-24T15:58:39,42.805,6.029,4330,1995,194.993,59.630,13.287
2017-10-24T16:01:39,42.805,6.029,4330,1995,194.872,59.594,13.287
2017-10-24T16:04:39,42.805,6.029,4330,1995,194.509,59.484,13.288
2017-10-24T16:07:39,42.805,6.029,4330,1995,194.388,59.447,13.288
2017-10-24T16:10:39,42.805,6.029,4330,1995,194.161,59.376,13.288
2017-10-24T16:13:39,42.805,6.029,4330,1995,194.226,59.396,13.288
2017-10-24T16:16:39,42.805,6.029,4330,1995,194.193,59.386,13.287
2017-10-24T16:19:39,42.805,6.029,4330,1995,194.105,59.359,13.287
2017-10-24T16:22:39,42.805,6.029,4330,1995,194.341,59.431,13.287
2017-10-24T16:25:39,42.805,6.029,4330,1995,194.345,59.433,13.288
2017-10-24T16:28:39,42.805,6.029,4330,1995,194.425,59.457,13.287
2017-10-24T16:31:39,42.805,6.029,4330,1995,194.100,59.358,13.288
2017-10-24T16:34:39,42.805,6.029,4330,1995,194.029,59.337,13.288
2017-10-24T16:37:39,42.805,6.029,4330,1995,193.755,59.253,13.288
2017-10-24T16:40:39,42.805,6.029,4330,1995,193.559,59.192,13.287
2017-10-24T16:43:39,42.805,6.029,4330,1995,193.570,59.196,13.288
2017-10-24T16:46:39,42.805,6.029,4330,1995,193.741,59.248,13.287
2017-10-24T16:49:39,42.805,6.029,4330,1995,193.494,59.173,13.288
2017-10-24T16:52:39,42.805,6.029,4330,1995,194.277,59.413,13.288
2017-10-24T16:55:39,42.805,6.029,4330,1995,194.107,59.363,13.290
2017-10-24T16:58:39,42.805,6.029,4330,1995,193.961,59.317,13.289
2017-10-24T17:01:39,42.805,6.029,4330,1995,193.605,59.208,13.288
2017-10-24T17:04:39,42.805,6.029,4330,1995,193.143,59.067,13.289
2017-10-24T17:07:39,42.805,6.029,4330,1995,192.836,58.973,13.289
2017-10-24T17:10:39,42.805,6.029,4330,1995,192.558,58.888,13.289
2017-10-24T17:13:39,42.805,6.029,4330,1995,192.312,58.812,13.288
2017-10-24T17:16:39,42.805,6.029,4330,1995,192.132,58.758,13.289
2017-10-24T17:19:39,42.805,6.029,4330,1995,191.970,58.708,13.288
2017-10-24T17:22:39,42.805,6.029,4330,1995,192.401,58.839,13.288
2017-10-24T17:25:39,42.805,6.029,4330,1995,192.404,58.840,13.288
2017-10-24T17:28:39,42.805,6.029,4330,1995,192.742,58.944,13.289
2017-10-24T17:31:39,42.805,6.029,4330,1995,192.492,58.866,13.288
2017-10-24T17:34:39,42.805,6.029,4330,1995,192.805,58.963,13.288
2017-10-24T17:37:39,42.805,6.029,4330,1995,192.489,58.867,13.289
2017-10-24T17:40:39,42.805,6.029,4330,1995,192.364,58.829,13.289
2017-10-24T17:43:39,42.805,6.029,4330,1995,192.234,58.788,13.288
2017-10-24T17:46:39,42.805,6.029,4330,1995,192.224,58.787,13.290
2017-10-24T17:49:39,42.805,6.029,4330,1995,193.079,59.046,13.288
2017-10-24T17:52:39,42.805,6.029,4330,1995,193.373,59.136,13.288
2017-10-24T17:55:39,42.805,6.029,4330,1995,193.097,59.052,13.288
2017-10-24T17:58:39,42.805,6.029,4330,1995,192.942,59.005,13.289
2017-10-24T18:01:39,42.805,6.029,4330,1995,192.809,58.965,13.289
2017-10-24T18:04:39,42.805,6.029,4330,1995,192.306,58.811,13.289
2017-10-24T18:07:39,42.805,6.029,4330,1995,192.046,58.730,13.288